Weather History for Christchurch, New Zealand

Change the Weather History Date:

Monday, December 23, 2013

  Actual Average Record
Temperature  
Mean Temperature 56 °F -  
Max Temperature 69 °F 68 °F 89 °F (1997)
Min Temperature 44 °F 49 °F 42 °F (1999)
Degree Days  
Heating Degree Days 8    
Growing Degree Days 6 (Base 50)    
Moisture  
Dew Point 46 °F    
Average Humidity 66    
Maximum Humidity 93    
Minimum Humidity 43    
Precipitation  
Precipitation 0.00 in - - ()
Sea Level Pressure  
Sea Level Pressure 29.92 in    
Wind  
Wind Speed 7 mph ()    
Max Wind Speed 13 mph    
Max Gust Speed -    
Visibility 6.2 miles    
Events      
Averages and records for this station are not official NWS values.
T = Trace of Precipitation, MM = Missing Value Source: Averaged Metar Reports

Daily Weather History Graph

Daily Weather History Graph

Search for Another Location

Airport:

Trip Planner

Search our weather history database for the weather conditions in past years. The results will help you decide how hot, cold, wet, or windy it might be!

Date:

Astronomy

Dec. 23, 2013 Rise Set
Actual Time 5:45 AM NZDT 9:11 PM NZDT
Civil Twilight 5:10 AM NZDT 9:47 PM NZDT
Nautical Twilight 4:23 AM NZDT 10:34 PM NZDT
Astronomical Twilight 3:24 AM NZDT 11:33 PM NZDT
Moon No Moon Rise 11:03 AM NZDT (12/23)
Length of Visible Light 16h 37m
Length of Day
15h 25m
Waning Gibbous, 75% of the Moon is Illuminated
Dec 23
Waning Gibbous
Dec 26
Last Quarter
Jan 2
New
Jan 8
First Quarter
Jan 16
Full

Hourly Weather History & Observations

Time (NZDT) Temp. Windchill Dew Point Humidity Pressure Visibility Wind Dir Wind Speed Gust Speed Precip Events Conditions
12:00 AM 53.6 °F - 44.6 °F 72% 30.04 in 6.2 mi ENE 10.4 mph - N/A   Overcast
12:30 AM 53.6 °F - 44.6 °F 72% 30.01 in 6.2 mi NE 9.2 mph - N/A   Overcast
1:00 AM 53.6 °F - 44.6 °F 72% 30.01 in 6.2 mi ENE 8.1 mph - N/A   Mostly Cloudy
1:30 AM 51.8 °F - 44.6 °F 76% 30.01 in 6.2 mi NE 8.1 mph - N/A   Mostly Cloudy
2:00 AM 50.0 °F - 44.6 °F 82% 29.98 in 6.2 mi NE 8.1 mph - N/A   Unknown
2:30 AM 48.2 °F - 42.8 °F 82% 29.98 in 6.2 mi NNE 5.8 mph - N/A   Unknown
3:00 AM 48.2 °F - 42.8 °F 82% 29.98 in 6.2 mi NNE 4.6 mph - N/A   Unknown
3:30 AM 46.4 °F 45.2 °F 42.8 °F 87% 29.98 in 6.2 mi NE 3.5 mph - N/A   Unknown
4:00 AM 46.4 °F 43.5 °F 42.8 °F 87% 29.95 in 6.2 mi NNE 5.8 mph - N/A   Unknown
4:30 AM 44.6 °F 42.2 °F 42.8 °F 93% 29.95 in 6.2 mi NE 4.6 mph - N/A   Unknown
5:00 AM 46.4 °F 45.2 °F 42.8 °F 87% 29.95 in 6.2 mi NNE 3.5 mph - N/A   Unknown
5:30 AM 44.6 °F 42.2 °F 41.0 °F 87% 29.95 in 6.2 mi NNE 4.6 mph - N/A   Unknown
6:00 AM 44.6 °F 42.2 °F 42.8 °F 93% 29.95 in 6.2 mi NE 4.6 mph - N/A   Unknown
6:30 AM 46.4 °F 45.2 °F 42.8 °F 87% 29.95 in 6.2 mi NE 3.5 mph - N/A   Unknown
7:00 AM 48.2 °F - 44.6 °F 87% 29.95 in 6.2 mi NE 4.6 mph - N/A   Unknown
7:30 AM 51.8 °F - 44.6 °F 76% 29.95 in 6.2 mi NE 5.8 mph - N/A   Unknown
8:00 AM 53.6 °F - 44.6 °F 72% 29.95 in 6.2 mi NNE 9.2 mph - N/A   Unknown
8:30 AM 55.4 °F - 44.6 °F 67% 29.95 in 6.2 mi ENE 9.2 mph - N/A   Unknown
9:00 AM 57.2 °F - 42.8 °F 59% 29.95 in 6.2 mi NE 10.4 mph - N/A   Unknown
9:30 AM 59.0 °F - 42.8 °F 55% 29.95 in 6.2 mi NE 8.1 mph - N/A   Unknown
10:00 AM 60.8 °F - 42.8 °F 52% 29.92 in 6.2 mi NE 8.1 mph - N/A   Unknown
10:30 AM 62.6 °F - 42.8 °F 48% 29.92 in 6.2 mi ENE 6.9 mph - N/A   Unknown
11:00 AM 62.6 °F - 44.6 °F 52% 29.92 in 6.2 mi NE 6.9 mph - N/A   Unknown
11:30 AM 64.4 °F - 44.6 °F 49% 29.89 in 6.2 mi NE 6.9 mph - N/A   Unknown
12:00 PM 66.2 °F - 46.4 °F 49% 29.89 in 6.2 mi East 8.1 mph - N/A   Unknown
12:30 PM 66.2 °F - 42.8 °F 43% 29.89 in 6.2 mi East 9.2 mph - N/A   Unknown
1:00 PM 66.2 °F - 42.8 °F 43% 29.89 in 6.2 mi East 9.2 mph - N/A   Unknown
1:30 PM 68.0 °F - 44.6 °F 43% 29.86 in 6.2 mi ENE 11.5 mph - N/A   Unknown
2:00 PM 68.0 °F - 46.4 °F 46% 29.86 in 6.2 mi East 10.4 mph - N/A   Unknown
2:30 PM 68.0 °F - 46.4 °F 46% 29.86 in 6.2 mi East 11.5 mph - N/A   Unknown
3:00 PM 69.8 °F - 48.2 °F 46% 29.86 in 6.2 mi East 9.2 mph - N/A   Unknown
3:30 PM 68.0 °F - 48.2 °F 49% 29.86 in 6.2 mi ENE 11.5 mph - N/A   Unknown
4:00 PM 68.0 °F - 50.0 °F 52% 29.86 in 6.2 mi ENE 11.5 mph - N/A   Unknown
4:30 PM 66.2 °F - 50.0 °F 56% 29.86 in 6.2 mi ENE 11.5 mph - N/A   Unknown
5:00 PM 64.4 °F - 50.0 °F 59% 29.86 in 6.2 mi ENE 11.5 mph - N/A   Unknown
5:30 PM 64.4 °F - 51.8 °F 64% 29.86 in 6.2 mi ENE 12.7 mph - N/A   Unknown
6:00 PM 62.6 °F - 50.0 °F 63% 29.86 in 6.2 mi ENE 10.4 mph - N/A   Unknown
6:30 PM 62.6 °F - 50.0 °F 63% 29.86 in 6.2 mi ENE 9.2 mph - N/A   Unknown
7:00 PM 60.8 °F - 50.0 °F 68% 29.86 in 6.2 mi ENE 8.1 mph - N/A   Unknown
7:30 PM 60.8 °F - 50.0 °F 68% 29.89 in 6.2 mi ENE 6.9 mph - N/A   Unknown
8:00 PM 60.8 °F - 48.2 °F 63% 29.89 in 6.2 mi ENE 5.8 mph - N/A   Scattered Clouds
8:30 PM 60.8 °F - 48.2 °F 63% 29.89 in 6.2 mi East 5.8 mph - N/A   Unknown
9:00 PM 60.8 °F - 46.4 °F 59% 29.89 in 6.2 mi ENE 4.6 mph - N/A   Unknown
9:30 PM 60.8 °F - 48.2 °F 63% 29.89 in 6.2 mi ENE 3.5 mph - N/A   Mostly Cloudy
10:00 PM 59.0 °F - 48.2 °F 67% 29.89 in 6.2 mi ESE 2.3 mph - N/A   Unknown
10:30 PM 59.0 °F - 50.0 °F 72% 29.89 in 6.2 mi East 4.6 mph - N/A   Unknown
11:00 PM 59.0 °F - 51.8 °F 77% 29.89 in 6.2 mi NE 3.5 mph - N/A   Unknown
11:30 PM 59.0 °F - 51.8 °F 77% 29.89 in 6.2 mi ENE 3.5 mph - N/A   Overcast